RH
16 17 18 18 17 17 17 17 16 16 16 16 16 16 15 15 15 14 14 15 14 15 15 15 16 17 23 27 26 26 25 24 26 35 38 21 13 18 22 22 18 14 12 10 7 13 20 25 30 31 35 32 45 73 65 61 76 81 87 86 84 90 87 83 83 77 67 64 74 79 81 73 63 64 57 54 52 44 46 42 38 38 38 40 39 44 52 57
15 15 16 16 16 16 15 15 15 16 15 16 15 15 15 14 14 14 15 15 15 16 15 16 15 17 24 27 28 28 31 37 43 49 29 10 19 23 25 27 22 17 12 9 7 11 22 26 29 30 35 36 44 65 65 62 75 81 81 82 84 84 76 74 75 69 61 66 79 81 86 82 70 72 64 52 51 52 51 43 40 42 42 41 39 46 54 56
20 15 14 14 15 15 15 15 15 15 15 15 14 14 14 14 15 16 18 20 21 20 19 18 16 19 26 27 29 32 42 55 54 43 18 9 21 20 23 26 21 19 11 7 5 8 19 24 25 25 30 37 44 60 67 64 70 75 71 79 88 76 67 71 73 72 71 75 80 80 84 84 74 75 72 61 56 56 53 44 45 49 46 44 41 45 53 57
30 22 15 13 13 14 14 14 14 14 14 14 14 14 14 14 17 20 25 29 29 26 22 19 17 20 26 28 32 39 52 57 41 26 19 19 22 20 23 25 21 15 8 4 4 7 14 18 18 20 24 30 44 57 64 62 63 68 65 74 81 69 68 73 77 82 81 80 82 83 75 69 73 79 79 71 61 58 54 44 45 48 46 45 43 43 47 52
39 32 22 15 12 12 13 13 13 13 13 13 14 14 14 16 20 23 30 35 34 28 23 20 18 22 27 30 39 49 55 48 30 21 22 22 22 22 23 22 17 9 6 4 4 8 12 16 18 21 21 23 44 57 56 56 54 57 59 63 65 65 74 78 82 85 83 83 83 81 69 67 79 80 79 74 62 58 53 43 41 43 43 44 44 43 43 45
41 39 31 21 12 11 11 11 12 12 13 13 14 14 15 18 21 25 32 36 34 27 22 20 19 25 28 31 43 52 49 38 27 20 19 18 15 14 14 10 8 5 5 4 6 14 18 21 20 21 20 19 41 52 49 51 47 51 58 57 57 63 75 80 84 85 82 84 82 77 73 79 83 73 76 76 66 66 56 41 38 41 41 41 42 42 43 44
40 39 36 27 16 13 11 10 11 11 13 12 13 14 15 18 20 25 32 34 31 25 21 20 21 26 30 40 52 54 47 33 21 18 15 14 9 6 5 3 4 4 4 9 17 24 24 25 22 18 16 15 30 39 40 46 43 53 68 64 62 67 74 77 81 84 82 84 85 80 75 81 80 71 74 74 72 75 59 39 36 39 39 40 42 42 42 44
40 39 36 30 22 15 12 10 10 10 12 12 13 14 14 18 20 23 30 32 26 23 21 21 26 28 32 47 54 52 48 34 20 16 12 11 9 5 4 4 5 4 4 13 24 27 24 24 21 14 13 12 19 23 30 46 45 54 71 68 64 72 79 78 82 88 85 88 89 83 81 84 87 83 78 76 76 69 50 37 37 38 39 41 42 41 42 43
40 38 35 30 25 18 14 11 10 10 11 11 12 13 14 16 18 21 29 30 23 23 23 24 30 30 40 56 55 48 40 28 20 15 11 11 8 5 7 8 8 7 9 15 21 24 20 18 14 11 12 9 14 17 25 47 49 49 63 68 69 75 83 84 87 92 90 93 90 85 88 89 91 85 75 78 76 63 46 36 36 39 40 41 41 41 41 42
40 39 34 29 26 20 15 12 10 10 10 11 12 12 13 14 17 21 27 29 24 25 27 28 33 35 50 62 52 42 29 19 20 16 13 14 10 9 10 11 12 12 15 16 17 20 18 15 11 9 9 8 15 17 23 42 47 50 60 70 77 76 80 85 89 93 91 93 90 88 92 92 90 80 75 81 76 62 47 38 38 39 41 40 40 40 40 40
36 38 34 29 27 22 16 12 10 10 10 11 11 12 13 13 15 20 27 29 25 28 30 31 36 43 58 60 43 31 22 17 19 16 15 16 15 14 11 11 14 13 16 17 15 16 14 12 9 8 8 9 15 18 28 44 48 56 64 73 82 79 81 86 90 91 85 88 90 90 92 90 87 82 83 85 81 68 48 42 42 38 39 40 39 40 41 40
28 32 33 30 27 24 18 13 11 10 10 11 11 12 12 12 14 20 28 30 28 31 32 33 43 51 60 62 46 26 17 17 18 17 16 16 15 14 12 13 14 13 15 16 15 13 9 8 7 8 8 9 16 20 32 47 51 56 66 80 86 84 89 90 88 88 85 90 90 86 90 90 86 85 87 86 83 73 57 51 43 37 39 38 39 39 39 39
23 24 28 29 27 24 20 15 12 10 10 11 12 12 12 12 13 19 27 31 31 32 32 35 47 58 59 52 35 19 16 17 16 17 16 15 15 15 14 13 13 13 14 14 13 9 7 7 7 8 8 8 16 19 23 38 52 57 63 80 87 82 87 90 89 89 89 96 89 82 91 96 90 82 85 88 80 71 69 64 43 33 39 36 36 39 39 39
23 21 21 24 25 24 21 17 13 10 10 11 12 12 12 12 12 18 27 31 32 34 34 36 47 62 63 42 21 17 18 14 14 17 15 15 16 16 15 13 13 13 12 12 9 7 7 6 6 8 8 8 12 16 17 23 43 60 59 69 81 76 74 81 88 91 93 96 86 80 92 98 91 81 83 89 81 70 73 74 52 33 35 36 35 38 39 39
25 22 20 20 21 22 22 19 15 12 10 10 12 12 12 12 12 18 28 33 34 35 36 40 46 57 61 41 20 16 14 10 11 13 11 12 14 14 14 13 12 11 9 9 7 6 6 5 6 9 11 11 11 17 21 19 31 53 58 64 73 69 71 78 84 90 93 94 86 82 94 98 91 86 86 88 83 77 76 78 64 40 32 36 36 37 39 39
26 25 22 21 19 19 20 19 17 13 9 10 11 12 12 12 13 19 31 37 37 36 37 46 49 51 52 38 20 13 10 9 10 10 10 10 11 11 12 11 11 9 7 7 6 6 6 5 7 10 11 13 15 18 23 25 28 38 55 69 69 69 82 85 81 86 89 93 92 89 97 100 96 93 89 87 82 79 81 80 70 48 34 36 37 36 39 41
28 26 24 22 20 19 18 18 18 13 9 9 10 12 12 12 15 24 35 40 40 40 41 47 50 49 42 28 21 16 10 10 9 10 10 9 10 9 9 9 8 7 6 6 5 5 6 6 9 13 13 14 17 19 23 30 29 32 52 65 62 66 81 86 84 86 87 91 94 95 97 97 96 92 86 86 82 79 82 79 69 53 38 36 36 36 39 42
28 26 25 23 22 21 19 17 17 13 9 8 10 12 11 15 25 33 40 43 46 50 49 51 48 38 29 24 25 21 11 10 9 8 9 8 9 7 7 8 6 6 6 5 5 6 6 7 11 15 15 15 16 19 26 29 26 34 49 53 57 66 73 84 89 86 88 91 93 98 98 93 95 92 84 83 80 81 82 77 69 57 43 36 35 37 39 41
30 27 26 24 23 22 20 18 16 13 10 8 10 10 13 26 36 39 47 48 42 37 35 43 39 22 18 21 23 17 8 8 8 6 7 7 7 6 7 7 7 6 5 6 6 6 7 8 12 15 15 15 15 18 21 20 20 27 36 40 55 69 71 82 89 83 84 89 92 96 96 94 95 89 81 80 79 81 80 74 70 64 53 45 40 39 37 40
32 28 26 25 24 23 22 20 16 14 11 9 9 11 20 33 33 34 46 50 40 24 16 25 29 21 18 17 15 12 7 6 6 6 7 6 6 6 7 7 8 8 7 8 8 7 8 10 13 15 15 14 13 14 15 15 16 16 21 33 50 64 70 78 85 81 76 83 90 89 91 91 86 80 74 77 80 79 77 72 69 64 60 58 52 48 44 41
34 29 26 25 25 23 23 21 17 14 11 10 11 15 22 25 23 22 28 32 30 25 19 20 23 22 19 14 11 7 6 7 7 7 7 6 6 7 9 9 9 11 9 8 9 9 10 12 13 12 12 12 10 11 12 12 13 13 17 31 49 58 65 72 78 77 72 83 92 83 85 85 76 73 71 73 76 76 75 70 67 62 63 66 55 54 57 51
37 31 27 26 26 24 23 22 16 11 9 11 14 19 20 17 17 16 15 18 18 17 20 20 20 20 18 16 13 6 7 9 8 8 7 6 7 8 10 9 10 12 10 10 12 12 12 13 11 9 9 10 10 10 11 10 12 15 15 30 54 58 61 69 72 71 70 82 91 81 82 83 73 70 70 72 71 72 73 72 71 64 65 69 59 60 66 62
40 33 28 27 27 25 24 21 14 9 12 16 17 20 18 13 14 13 14 20 18 14 16 16 17 19 18 15 10 6 8 9 9 9 6 6 8 9 9 9 10 10 9 10 13 15 15 13 10 9 10 9 10 9 9 11 12 15 13 22 48 55 56 68 72 70 69 75 82 81 82 82 74 70 69 69 67 72 80 82 81 70 65 66 60 64 65 63
41 33 30 29 27 26 24 17 12 13 16 16 16 16 13 12 14 14 17 22 21 16 14 13 13 13 13 11 7 6 8 9 9 9 6 7 8 9 9 9 10 10 10 10 12 15 14 11 8 9 9 8 9 7 8 11 11 15 12 11 37 53 49 55 66 69 71 72 69 73 84 86 82 76 72 72 71 77 86 83 83 78 71 68 63 67 66 64
41 34 31 29 28 28 21 15 16 18 16 13 14 13 11 12 12 14 21 26 25 19 14 12 12 9 8 8 7 7 8 9 9 8 7 6 8 10 10 9 10 11 10 8 9 13 12 9 8 7 7 6 7 7 7 9 10 13 12 7 22 45 47 49 60 68 80 82 64 62 81 88 89 86 79 80 78 78 85 82 82 84 78 74 70 71 70 67
39 35 31 29 30 27 21 18 21 23 18 13 12 13 12 12 12 14 22 30 29 21 15 13 11 9 6 7 8 7 10 11 8 6 7 7 7 8 9 10 11 10 10 8 9 11 9 8 8 6 7 6 6 8 6 7 11 11 12 6 8 29 48 54 60 69 80 80 61 57 77 89 90 89 85 86 85 82 86 85 87 89 83 80 78 73 68 65
38 34 30 30 29 29 29 27 29 30 22 14 13 14 13 12 13 13 26 44 41 23 13 11 9 7 6 7 7 9 15 13 7 6 7 7 6 6 9 11 12 11 9 8 9 10 8 7 8 7 7 7 7 8 6 8 11 10 9 6 9 30 49 52 57 66 65 66 62 54 69 91 94 91 90 90 90 87 85 83 86 91 87 82 80 77 69 62
37 33 31 31 28 32 37 38 42 37 21 13 14 15 14 13 14 17 35 54 41 16 9 10 7 7 7 7 7 10 13 11 9 9 6 6 7 7 9 10 10 12 10 9 10 11 8 8 9 8 8 8 8 9 8 7 8 9 8 4 9 30 48 50 54 57 52 64 81 65 61 86 95 93 94 91 92 91 84 79 81 86 90 86 81 79 78 72
36 33 32 31 29 33 38 41 43 31 16 14 15 15 13 12 17 26 44 50 26 8 10 9 6 7 7 7 7 8 9 8 10 11 7 6 7 7 10 10 10 11 10 10 11 10 9 10 11 9 8 9 10 11 8 7 8 7 6 6 7 19 36 43 43 42 39 54 78 72 60 77 92 94 94 91 93 90 81 78 79 80 86 89 86 82 84 85
34 33 31 31 32 35 38 38 30 19 15 16 15 15 13 17 29 38 45 41 21 10 10 8 7 8 7 7 7 7 8 8 9 10 8 7 7 7 9 9 9 10 12 10 10 9 8 11 13 10 11 10 8 11 8 8 10 5 5 8 7 13 22 33 40 37 30 32 52 62 56 64 81 88 90 89 88 84 78 79 82 81 84 88 91 89 86 88
32 33 31 32 32 35 42 36 21 16 19 18 17 15 16 26 36 41 38 27 17 13 8 7 9 7 7 8 8 7 8 8 8 9 9 9 9 8 9 11 11 14 19 15 10 10 8 9 11 9 12 10 6 9 8 8 9 5 8 9 10 22 27 35 48 41 27 25 36 49 51 60 76 81 83 82 77 75 75 78 79 78 81 84 87 91 89 88
31 31 31 31 30 32 37 30 20 20 19 19 21 20 27 34 33 35 33 20 18 16 8 8 9 7 8 8 7 8 8 9 8 8 10 11 12 10 10 15 15 16 24 22 12 12 12 8 8 8 11 9 6 9 9 10 10 5 11 15 18 29 27 30 42 34 27 32 38 45 51 68 86 83 79 78 76 78 80 81 83 80 81 82 82 88 90 88
30 30 28 29 29 28 26 22 23 23 18 20 25 25 33 39 35 34 28 18 19 14 6 8 8 7 8 8 8 8 8 9 8 7 9 11 13 13 10 12 14 14 20 21 14 14 16 11 8 7 9 9 7 10 12 14 13 7 11 18 26 33 27 30 42 35 35 47 50 52 62 83 95 86 80 82 81 82 82 82 85 86 87 86 84 86 89 89
29 28 27 27 26 22 20 20 24 25 21 22 28 30 31 35 37 34 24 18 17 11 8 8 6 7 8 7 8 7 8 9 8 8 9 10 13 15 13 11 12 10 12 18 16 14 17 17 13 10 9 9 7 9 13 14 15 12 12 16 26 33 29 32 42 35 38 58 65 65 77 93 95 84 79 79 78 79 81 81 83 86 88 89 90 91 91 91
29 26 26 26 24 20 18 19 23 27 27 24 30 37 35 34 35 30 23 18 14 12 12 7 5 8 7 7 7 6 8 8 7 9 9 10 12 13 14 11 11 11 12 18 19 15 16 18 16 11 8 7 7 9 10 12 16 15 15 16 17 23 26 31 39 37 44 71 85 84 88 92 90 85 76 71 73 78 80 81 83 86 86 89 93 93 92 93
28 25 26 28 26 21 19 22 25 29 29 25 29 36 34 31 29 23 20 16 12 14 13 10 9 8 7 8 7 5 7 7 8 9 9 9 10 10 11 11 10 11 13 17 18 14 16 16 13 10 9 8 8 10 9 10 17 18 17 17 13 14 21 26 33 42 57 80 89 88 91 92 89 84 74 70 76 80 81 83 85 89 90 91 95 93 93 95
28 31 36 35 29 23 23 24 24 28 29 25 31 38 32 24 20 18 17 15 14 14 14 17 15 8 7 9 8 6 7 6 7 8 10 10 10 11 11 9 9 10 12 16 15 12 14 15 13 11 10 10 9 10 9 9 13 17 16 16 14 14 21 29 33 43 68 89 91 86 90 95 92 84 78 79 82 82 84 87 88 91 93 94 95 92 92 95
38 47 49 36 27 28 27 20 18 26 27 22 35 46 36 22 17 16 15 13 14 13 15 19 15 8 7 8 9 8 6 7 8 9 12 11 10 12 9 9 10 9 9 12 15 15 14 15 16 13 10 10 11 10 11 12 11 13 13 12 13 16 23 33 32 36 67 96 97 87 86 93 96 93 90 88 87 87 87 90 92 94 96 96 95 93 91 92
49 58 50 28 21 27 24 16 18 26 25 24 35 38 28 21 16 14 14 13 14 13 15 17 11 9 10 8 10 9 7 9 8 10 14 11 10 11 9 10 10 8 9 10 12 13 13 16 19 17 12 11 15 15 14 17 13 10 11 10 14 21 25 30 27 32 64 94 96 88 88 95 98 95 95 92 89 91 92 94 96 94 95 96 94 94 92 92
51 52 41 24 23 26 19 15 19 23 24 29 33 26 17 16 12 10 11 11 11 11 13 14 10 11 11 8 9 10 8 9 8 10 12 10 11 12 9 10 9 7 9 9 11 14 16 18 20 21 16 12 18 17 12 16 14 10 15 15 16 20 21 26 27 27 49 79 92 93 93 97 97 93 94 93 91 93 95 97 98 93 92 93 92 92 92 93
64 51 38 27 26 23 15 16 20 22 24 26 24 17 12 13 11 9 9 8 9 9 10 11 12 12 11 9 11 9 8 9 8 9 9 9 14 14 9 9 8 7 9 11 14 15 17 20 21 22 18 12 15 13 9 14 13 12 18 17 16 19 23 35 37 29 39 63 79 87 92 96 95 90 90 92 91 92 95 97 97 95 91 91 92 90 91 95
69 51 37 24 22 19 14 19 22 20 20 20 16 12 12 13 12 9 8 8 8 8 9 11 12 11 9 9 10 9 9 10 9 11 10 10 12 12 10 9 8 9 12 14 14 16 24 28 24 23 20 13 12 12 11 13 12 14 16 14 16 21 31 45 43 34 44 58 68 81 91 94 92 87 88 93 93 92 95 97 97 98 93 91 94 92 91 94
55 46 33 18 18 18 15 22 26 20 16 15 13 11 11 11 10 8 8 8 8 9 10 11 10 10 9 9 8 8 8 9 10 11 12 11 10 9 10 9 9 13 16 17 14 18 29 30 26 36 42 33 23 20 20 16 14 16 15 14 17 16 24 38 38 39 50 56 67 84 91 90 89 88 88 90 92 94 96 98 96 96 93 90 91 93 93 92
57 55 40 24 21 18 16 24 29 26 21 15 10 9 9 8 8 8 8 7 8 10 11 11 10 9 9 8 8 8 8 10 13 11 11 12 10 10 13 13 14 16 17 20 17 14 22 32 42 54 55 45 36 31 28 23 19 20 17 15 15 15 22 29 33 45 51 48 62 81 86 86 85 86 90 90 92 95 96 96 95 92 91 91 91 93 95 94
66 61 49 35 26 19 20 24 24 26 26 19 15 12 10 9 8 8 8 8 8 10 11 12 10 8 9 8 8 9 8 9 14 13 11 11 9 11 15 16 15 15 21 32 32 23 23 36 56 65 55 45 44 39 34 29 24 24 20 14 12 19 27 29 36 52 55 52 65 76 81 90 91 89 92 92 92 96 96 94 93 92 91 93 95 96 96 96
62 59 53 45 34 24 24 23 19 23 26 23 24 20 14 14 13 10 10 9 8 9 11 12 11 10 10 8 9 10 8 8 11 13 13 12 10 11 14 16 14 19 34 42 37 31 27 30 50 69 62 48 45 42 36 31 26 21 18 12 10 16 29 40 48 56 58 65 75 75 79 94 99 94 93 91 92 96 96 93 93 94 94 95 96 97 96 96
70 67 59 56 54 43 36 33 27 27 27 26 28 23 17 17 15 14 13 12 11 10 10 12 11 11 11 10 10 10 9 9 9 11 14 14 12 12 14 18 21 32 42 35 28 33 30 21 31 47 44 33 31 31 25 21 20 17 13 12 11 13 25 38 42 45 57 71 76 76 85 94 96 95 93 93 94 96 97 96 96 95 95 94 95 97 97 97
68 62 52 55 64 61 55 49 40 35 33 30 27 19 15 16 15 15 15 13 12 11 12 14 12 11 12 10 11 14 14 11 9 13 16 15 13 14 15 15 19 32 32 18 22 36 30 21 22 23 22 22 19 18 17 14 16 15 12 12 13 13 20 29 36 47 62 70 71 77 85 89 90 94 92 91 93 95 96 95 93 93 94 94 96 98 98 99
61 64 59 55 59 62 59 51 44 41 37 36 36 26 17 17 18 16 14 15 15 13 12 16 14 11 12 11 13 18 18 15 14 17 18 15 15 19 21 17 17 22 18 9 17 26 25 32 32 16 13 20 18 15 17 15 15 17 16 14 12 16 28 36 44 56 63 66 71 80 86 88 87 88 88 89 92 93 93 91 89 91 94 94 97 99 99 100
70 78 77 70 67 63 55 48 45 45 41 38 40 35 25 22 24 22 18 17 21 18 14 15 17 16 17 16 16 18 20 21 21 20 18 15 18 23 24 22 18 16 13 13 16 18 22 36 39 25 22 28 24 18 16 15 15 17 20 18 11 18 42 55 56 60 69 77 79 83 91 94 87 83 87 90 91 91 91 91 90 91 92 94 96 97 97 99
73 76 76 82 83 69 55 48 44 48 49 41 37 35 31 28 27 25 22 19 20 21 20 21 24 25 24 22 22 22 21 21 20 19 16 14 18 24 23 19 17 15 15 17 17 19 24 29 34 33 31 32 27 18 15 17 17 18 24 26 18 19 37 54 57 59 72 85 89 91 97 97 89 87 90 91 91 92 91 91 91 91 91 93 95 96 97 99
79 79 75 80 83 71 58 53 51 53 54 46 40 37 33 29 27 26 30 27 20 20 24 24 25 30 31 28 25 22 19 19 19 17 13 11 15 20 17 14 15 16 20 22 20 23 28 27 29 31 30 33 30 20 17 21 23 29 35 32 29 32 37 44 51 55 63 77 87 90 91 90 88 89 92 93 93 93 92 91 91 90 91 92 92 94 96 97
Wind_Speed
13 13 13 13 13 13 14 14 14 14 14 14 15 15 14 14 14 14 14 14 14 14 14 13 12 11 10 10 11 13 14 11 6 4 6 7 8 8 4 4 4 4 5 5 6 6 5 6 9 11 5 3 3 2 4 4 1 2 3 2 1 2 3 4 5 4 3 3 2 1 3 3 1 5 3 3 5 8 9 7 9 7 9 13 17 27 32 31
14 13 12 12 13 13 14 14 15 15 15 15 16 16 16 16 16 16 16 15 14 14 13 12 11 10 8 9 11 12 13 10 5 7 10 9 10 10 7 6 7 7 7 7 9 7 3 4 6 6 3 2 3 3 3 3 2 2 2 2 2 4 4 4 6 4 3 4 3 1 2 3 2 3 3 2 2 5 7 8 10 11 11 14 20 29 31 30
14 14 13 13 13 14 14 14 15 15 16 16 16 17 17 18 19 18 17 15 13 12 11 10 8 7 7 8 9 10 10 6 3 6 7 10 12 10 8 8 9 8 8 9 8 9 8 8 7 4 3 4 3 4 2 2 2 1 2 2 4 4 4 3 5 4 4 6 4 2 1 2 1 1 1 1 2 5 7 10 12 13 15 14 16 24 30 30
16 15 14 14 14 14 14 15 15 15 15 16 16 17 18 19 19 18 16 14 13 11 9 7 6 6 6 7 8 8 7 3 1 5 4 8 11 10 9 11 11 9 9 9 7 10 11 10 8 5 4 6 4 4 3 4 3 2 3 3 5 3 4 3 4 5 4 6 5 2 2 1 1 1 1 2 4 4 8 12 14 17 18 16 14 18 25 27
17 16 15 15 14 14 14 14 14 15 15 16 16 17 19 20 19 18 16 15 13 10 8 5 4 5 5 6 6 6 4 2 3 5 4 6 8 8 10 12 12 10 8 8 8 9 10 9 5 3 3 4 4 3 3 7 5 2 3 4 4 3 3 3 4 7 5 6 5 4 3 2 1 0 1 3 5 3 5 12 16 17 17 17 15 16 18 19
17 17 16 15 15 14 14 14 14 15 15 16 17 19 20 21 21 19 17 16 13 10 7 4 3 4 5 5 3 4 2 0 5 5 5 5 5 7 9 11 11 9 9 9 7 5 6 5 2 2 2 0 4 5 3 7 6 2 2 3 3 4 4 3 2 5 5 6 5 4 3 1 3 1 1 2 4 1 1 11 16 15 17 18 17 15 13 12
17 17 17 17 16 16 15 15 15 16 16 17 18 20 21 22 22 20 18 16 13 9 6 4 3 3 4 2 1 3 2 3 7 5 6 5 4 5 7 8 8 9 9 9 6 3 3 3 2 2 3 3 4 8 6 9 8 3 2 4 3 4 5 3 2 5 5 6 4 5 3 2 3 1 2 3 2 0 1 11 16 15 17 17 15 12 11 13
18 18 18 18 17 17 17 17 17 17 17 18 19 20 21 22 22 20 19 16 12 9 5 3 2 3 3 1 0 3 0 5 6 6 5 4 3 4 6 7 8 9 10 10 7 4 2 3 5 4 3 5 4 6 5 11 7 4 5 4 3 3 4 3 4 6 5 4 3 5 5 3 3 1 2 3 1 3 1 11 15 15 16 14 13 12 12 13
18 19 19 18 18 18 18 18 17 17 18 18 19 20 21 22 22 21 18 15 11 8 5 3 2 2 3 0 0 2 3 4 6 6 3 3 4 4 6 6 8 10 9 10 11 5 1 3 6 4 3 6 4 5 4 12 5 5 7 5 4 2 4 4 4 5 5 2 1 5 5 2 2 2 2 1 3 4 2 13 15 14 14 13 12 12 13 12
19 19 19 19 19 19 19 18 18 18 18 18 19 20 21 22 22 20 16 13 10 7 5 3 2 2 3 1 2 2 4 5 7 6 3 4 5 4 5 6 8 10 8 9 11 8 5 6 7 5 5 5 3 6 1 8 5 7 9 5 4 3 3 3 3 4 4 3 2 5 5 1 4 1 2 2 3 4 5 14 14 14 14 13 12 11 13 13
20 20 19 19 19 19 19 19 18 18 18 19 19 20 21 22 22 19 14 11 9 7 4 3 3 2 1 1 3 2 6 7 8 8 5 4 4 4 7 8 8 11 11 9 11 12 11 12 9 4 4 3 3 6 3 7 9 11 10 6 2 3 3 2 4 3 3 2 2 5 4 2 4 0 4 2 2 4 8 12 11 13 14 13 13 11 11 12
20 20 19 19 19 20 19 19 18 18 18 19 19 20 21 21 21 18 13 9 7 6 4 2 3 2 1 1 3 6 6 9 10 9 7 3 3 4 6 9 10 12 13 10 11 13 12 13 8 4 4 2 3 3 4 9 11 10 9 6 1 1 2 2 2 2 2 1 1 5 3 1 1 3 2 1 3 6 8 8 11 12 12 12 12 9 8 9
21 20 20 20 20 20 20 19 19 19 19 19 19 20 21 21 20 17 12 8 6 5 4 3 2 1 2 1 5 6 5 7 9 10 10 7 5 7 8 10 12 13 14 13 12 13 13 15 8 4 5 2 1 1 4 8 10 7 3 4 4 1 2 4 2 2 4 1 2 3 1 3 6 7 1 5 4 7 8 2 10 13 10 10 10 8 7 7
21 21 21 20 20 20 20 19 19 19 19 19 19 20 21 21 20 16 12 8 5 4 4 3 2 1 1 4 9 10 8 6 9 13 12 11 12 12 13 14 16 16 16 17 16 13 15 16 9 4 4 3 3 3 2 4 7 6 2 1 2 1 2 3 3 4 4 0 1 2 2 4 5 7 2 5 5 8 6 5 6 10 9 8 8 8 6 6
22 22 22 21 21 21 20 20 20 20 20 20 19 20 20 21 19 15 10 7 5 4 4 3 2 0 1 6 10 8 6 5 10 13 11 12 14 11 13 18 19 18 15 15 14 13 14 12 6 2 3 3 1 4 4 2 3 4 4 2 2 2 2 3 4 7 4 2 1 1 2 4 4 2 1 4 6 7 5 4 5 5 10 9 8 7 5 6
22 22 22 22 21 21 21 21 21 20 20 20 20 20 20 21 19 14 9 6 4 3 2 3 2 1 1 5 6 5 4 7 10 12 11 14 16 13 15 17 17 17 16 13 11 12 12 6 2 2 2 4 2 2 3 4 2 2 4 3 3 3 2 2 2 6 6 5 3 3 1 2 2 4 5 4 6 6 2 3 6 0 9 11 8 7 7 7
23 23 23 23 23 22 22 22 22 21 20 20 21 20 21 22 17 10 7 3 2 2 1 1 3 2 2 6 6 4 6 9 11 12 12 15 18 15 10 8 9 12 13 10 8 8 5 2 2 3 1 2 0 3 3 3 3 3 3 3 4 3 4 2 1 3 7 6 4 5 3 0 4 3 3 4 6 3 2 3 6 2 8 10 7 6 8 8
23 23 23 24 24 23 23 23 22 21 21 21 21 21 22 20 11 4 1 3 1 0 1 2 2 1 3 5 4 4 8 11 9 9 11 14 16 13 7 5 4 5 4 3 4 3 1 1 1 1 3 2 2 3 3 4 4 5 5 4 3 3 4 4 2 3 7 4 3 5 5 2 5 6 3 4 4 1 2 2 5 2 5 9 7 7 8 9
24 24 24 24 24 24 24 23 23 22 22 21 20 20 18 11 3 2 4 5 2 1 2 2 2 1 3 6 6 5 6 10 7 6 9 10 12 11 8 6 2 4 3 1 2 2 2 1 2 1 3 4 5 5 7 9 5 5 5 4 4 3 2 3 2 4 7 4 2 4 3 2 6 6 5 2 2 1 2 4 3 3 3 2 3 4 7 9
24 24 24 25 24 25 24 24 23 22 23 21 20 16 8 4 4 2 1 3 4 6 7 6 6 4 7 7 4 4 5 7 5 6 11 10 9 7 4 2 0 2 4 3 3 2 4 2 3 4 7 8 9 9 10 11 7 7 7 3 5 4 3 3 3 5 7 4 1 2 4 5 7 7 6 5 4 2 0 4 3 4 5 3 1 1 3 4
25 25 25 25 25 25 24 24 24 22 22 20 17 9 0 1 2 3 3 4 8 10 10 12 10 9 12 11 5 8 5 2 3 6 12 11 6 4 2 1 1 2 4 4 2 0 4 4 7 10 11 10 9 9 9 10 9 8 5 4 5 3 3 3 5 8 6 4 1 3 6 5 6 6 4 5 5 3 3 2 1 6 7 3 4 3 4 4
26 25 26 26 26 26 24 24 23 21 18 14 12 3 3 5 6 9 8 5 9 9 10 13 11 11 15 20 17 11 6 1 5 6 9 9 5 4 2 2 4 4 4 2 1 1 2 5 11 13 10 8 9 10 9 11 11 5 2 5 4 3 5 4 3 9 6 3 2 4 7 5 4 5 5 5 5 3 4 5 3 7 7 4 5 4 4 5
25 26 27 26 27 27 24 25 21 15 12 13 11 5 8 18 18 19 10 2 8 9 7 8 8 7 10 16 16 12 6 4 5 6 7 8 4 4 2 1 4 4 2 3 4 3 3 7 14 13 9 8 10 10 7 6 4 2 3 3 4 6 6 1 3 8 4 2 4 5 5 2 2 3 4 5 5 2 1 3 5 6 6 5 5 4 3 3
26 26 26 27 29 27 25 24 14 8 15 17 13 9 16 25 21 16 7 1 5 7 7 9 7 5 8 10 7 9 4 4 5 5 9 9 3 4 4 3 4 4 5 7 7 7 8 10 11 9 8 7 5 4 3 3 3 1 2 3 5 9 7 3 6 7 2 4 5 7 6 3 1 3 5 3 2 2 2 4 6 4 4 5 4 5 3 4
26 26 26 28 29 28 27 17 5 12 20 15 11 13 20 23 20 13 4 1 4 5 6 6 4 4 8 8 7 7 2 2 4 7 11 11 6 3 3 3 3 6 9 9 7 7 11 11 5 3 3 2 3 2 0 3 2 3 1 1 5 12 9 7 11 8 4 2 4 5 5 2 4 3 5 2 1 3 0 3 5 3 3 4 5 5 4 5
27 26 26 28 28 31 24 7 8 20 18 10 10 18 21 20 22 15 2 3 4 4 3 1 2 4 6 5 5 4 4 2 6 9 12 11 8 5 3 3 1 5 6 6 4 3 7 7 2 2 1 4 4 3 3 4 2 2 2 3 2 9 12 13 14 8 3 3 6 5 4 1 3 3 4 2 2 5 2 2 4 4 4 4 5 6 6 7
27 26 27 26 28 30 17 5 16 20 8 7 15 19 19 20 23 14 3 3 4 4 3 1 1 4 6 6 6 6 2 5 4 6 10 10 7 4 3 4 2 4 3 2 1 2 4 2 0 3 2 4 3 3 5 4 5 1 5 1 4 8 15 15 14 8 3 4 4 6 3 2 2 3 4 2 2 6 5 4 5 5 6 4 4 5 6 8
27 27 27 26 27 26 15 10 17 13 6 11 18 18 18 20 18 8 4 2 2 1 2 2 0 2 3 3 6 4 4 4 0 4 9 9 6 3 2 6 4 6 4 2 2 6 2 3 3 3 3 1 1 5 6 4 6 4 6 1 5 11 17 14 11 6 2 5 3 6 3 3 2 4 3 2 2 6 7 8 7 5 6 5 5 5 5 6
28 27 27 28 27 21 13 13 15 10 9 15 18 17 18 17 10 5 4 1 1 1 1 1 1 2 1 2 3 3 3 3 2 5 3 4 5 2 2 7 5 6 6 3 5 6 2 5 7 6 3 3 5 7 5 5 5 5 4 2 4 7 13 11 8 5 3 4 4 11 7 3 2 4 1 1 2 5 7 7 6 5 5 5 4 5 4 3
30 27 27 28 26 18 15 19 17 8 9 17 18 16 14 9 5 5 2 1 2 2 0 1 1 2 4 2 2 4 3 3 4 2 1 1 2 1 1 3 1 2 5 2 4 5 3 2 3 4 4 6 5 5 3 2 5 3 0 3 5 3 4 5 3 4 5 2 6 13 12 5 1 3 2 3 3 4 5 4 4 4 3 4 4 4 4 4
31 28 27 28 26 18 13 14 11 7 11 18 17 12 8 4 4 4 2 3 3 2 1 1 2 3 6 6 4 4 3 3 3 2 2 2 1 2 2 3 3 2 4 4 4 4 3 1 2 2 4 5 2 3 4 4 1 2 2 3 3 4 3 3 3 3 3 4 5 11 11 5 2 3 3 2 4 3 1 3 3 3 4 3 4 3 4 4
32 30 28 26 24 19 13 12 12 13 14 15 11 5 5 4 1 2 3 3 2 3 3 3 4 3 6 7 6 5 3 3 4 4 4 3 2 2 2 2 2 3 3 3 3 6 4 3 4 2 2 4 3 2 5 6 5 5 3 5 4 2 3 3 3 1 2 3 2 7 9 5 1 3 3 2 4 5 3 4 5 4 4 3 4 4 4 4
33 32 29 24 21 21 19 17 15 13 11 8 5 4 6 3 2 4 4 2 1 3 1 3 6 6 6 5 4 4 4 4 6 5 5 4 3 4 4 6 5 4 1 3 1 3 4 5 2 1 2 1 6 2 2 3 3 2 2 3 3 2 2 2 3 2 1 0 4 3 4 2 1 2 5 5 4 5 5 6 6 7 7 5 3 1 1 3
34 32 29 25 22 22 20 16 12 9 7 4 4 5 4 2 4 4 4 3 3 4 2 3 7 7 7 5 4 5 4 5 7 6 5 3 2 3 4 6 5 5 2 1 0 1 1 5 3 3 2 1 4 4 5 4 1 2 4 5 3 2 3 3 3 2 2 2 4 7 4 1 1 3 5 4 5 6 6 6 6 7 6 6 6 6 4 4
34 31 29 25 21 16 12 11 11 8 3 2 6 4 3 4 4 2 3 4 2 4 6 3 5 5 5 4 4 6 5 4 6 5 4 4 4 4 4 5 5 5 3 1 1 2 1 3 6 3 3 5 4 4 5 5 1 3 1 5 1 3 5 2 2 4 4 3 3 4 2 1 1 2 5 5 7 6 5 5 6 5 3 4 6 4 3 3
34 32 25 18 17 12 5 5 9 10 6 5 5 2 4 4 3 2 2 4 1 3 8 6 0 2 3 2 3 3 2 2 4 3 2 4 4 4 3 3 4 7 4 3 1 1 2 3 6 3 2 3 6 6 4 5 2 1 3 1 4 4 6 3 1 3 5 5 2 1 1 2 1 1 4 6 7 6 5 4 4 4 4 4 3 2 1 3
33 29 18 16 17 10 5 5 14 15 6 6 4 4 4 4 4 3 3 6 4 3 5 5 2 2 2 1 3 4 1 1 2 4 2 3 3 2 2 1 1 5 6 4 1 1 2 3 7 1 1 6 6 2 2 2 5 4 1 4 3 2 3 3 2 3 4 4 1 1 1 2 1 0 3 6 7 6 5 4 3 5 6 5 5 3 4 4
28 20 14 16 9 6 7 10 19 14 5 4 3 4 4 3 3 2 4 7 7 4 2 2 3 2 3 1 3 4 3 2 3 4 2 2 2 2 3 2 1 1 5 6 3 1 4 2 7 2 1 5 1 6 4 5 1 4 3 3 2 3 1 2 2 1 2 3 1 1 1 2 1 1 3 4 5 6 6 5 4 5 6 4 5 5 3 4
17 8 7 9 1 11 13 17 18 8 5 3 4 3 3 4 4 4 6 6 5 4 3 4 3 1 2 2 1 4 2 4 5 4 2 2 2 2 2 2 1 1 3 7 4 2 3 3 4 5 5 5 4 5 2 6 5 2 2 3 2 3 3 1 1 2 4 4 1 0 1 3 2 3 3 4 6 6 5 6 4 5 5 4 4 5 4 4
6 1 5 6 5 16 18 18 11 5 2 4 4 3 3 4 4 6 7 5 3 3 4 5 2 1 1 0 1 2 2 3 5 3 2 2 2 1 1 3 2 1 5 8 4 0 3 3 2 6 7 4 2 1 2 2 2 3 4 3 2 1 1 2 2 1 4 5 3 2 1 4 4 3 4 5 5 4 4 4 3 3 4 4 4 4 5 4
3 1 3 1 13 23 20 10 3 2 3 3 3 3 4 4 5 8 8 7 6 4 6 8 4 3 3 2 1 2 1 1 3 2 2 2 3 1 2 2 4 3 5 7 4 1 1 2 1 3 5 3 3 5 4 4 4 5 3 2 2 1 3 4 3 3 2 4 4 4 3 4 4 3 4 4 3 2 3 3 2 4 5 5 5 5 6 5
1 1 5 1 10 17 12 4 2 2 3 3 4 4 5 5 6 8 8 8 7 5 6 7 5 3 3 3 2 1 1 1 3 1 1 2 4 3 1 4 7 7 6 3 0 1 2 3 3 1 3 4 8 8 4 3 3 5 3 3 4 3 4 5 3 1 2 4 3 3 2 3 4 3 3 2 2 2 3 1 3 5 6 6 6 7 6 6
1 4 11 8 8 10 3 2 3 1 2 4 4 5 6 5 6 7 7 7 6 4 4 4 3 1 2 2 2 1 2 1 1 2 2 2 1 1 3 7 8 7 5 2 1 1 1 3 3 2 4 5 8 7 6 4 4 4 2 1 3 2 3 5 5 4 4 3 2 4 2 4 4 2 3 3 3 2 1 3 4 4 5 5 5 6 6 6
1 5 8 7 8 10 2 2 3 3 4 4 4 7 7 6 7 8 8 8 6 3 4 4 2 1 2 1 1 3 3 1 1 2 3 2 0 1 4 9 8 5 3 2 2 1 1 1 3 3 4 6 7 7 7 7 5 3 3 5 2 3 6 5 3 4 3 2 3 5 2 5 3 3 3 3 3 2 3 3 4 4 4 4 3 4 4 5
3 2 4 7 5 6 4 4 4 3 4 4 5 7 6 5 6 8 10 10 8 4 3 4 3 2 3 2 0 1 3 4 1 0 2 2 1 3 5 10 10 6 4 6 5 4 3 2 4 5 3 1 0 1 3 3 3 3 3 5 6 5 6 4 3 5 2 1 3 5 4 3 2 4 4 3 3 4 4 4 4 4 4 3 2 3 4 4
3 1 3 5 3 2 3 3 1 2 4 4 4 5 6 6 5 6 9 9 9 8 5 4 3 3 4 2 1 1 1 3 3 1 1 2 1 1 2 8 8 6 7 8 6 5 3 2 3 6 6 5 6 6 5 3 2 4 4 4 5 3 5 5 4 3 4 3 3 0 5 6 4 4 4 4 3 4 4 4 4 4 4 2 1 3 4 4
1 1 2 3 3 2 3 4 3 2 4 5 4 4 6 6 5 4 4 4 6 6 4 3 1 2 2 3 1 1 3 2 1 3 3 3 2 2 2 5 6 6 8 8 5 5 4 0 2 7 7 7 8 7 7 4 3 4 5 5 3 2 4 6 5 5 7 5 2 2 6 10 7 6 6 5 4 5 4 4 3 3 4 2 0 2 4 4
1 2 2 2 2 1 2 4 5 6 8 7 5 6 7 7 6 5 4 4 5 2 2 0 1 2 1 2 3 3 3 3 2 2 3 4 4 2 3 4 1 5 6 5 2 4 6 2 4 5 5 5 5 5 6 4 4 4 3 1 3 5 6 6 5 7 7 5 4 7 9 9 7 6 6 6 5 6 5 4 4 4 4 3 1 3 4 4
1 2 3 3 2 2 3 7 8 8 8 7 4 5 7 6 6 5 3 4 7 4 1 1 2 2 2 3 2 2 3 3 3 3 3 6 6 4 3 1 2 2 4 5 1 2 5 2 4 3 2 3 3 5 4 5 7 7 5 3 3 6 8 8 5 5 8 7 8 10 8 5 5 7 7 5 5 6 5 3 2 2 4 3 2 3 4 4
1 2 3 3 3 4 4 5 5 6 6 5 3 4 4 2 4 6 3 2 5 7 4 1 2 4 7 7 6 5 7 6 6 6 2 5 4 3 4 4 3 1 2 4 1 2 4 2 4 2 2 4 5 4 5 7 8 8 6 2 4 7 10 10 8 9 10 7 7 11 9 3 2 4 6 5 5 5 5 3 1 1 2 4 3 3 3 3
4 5 4 2 3 4 3 4 4 4 5 3 2 4 4 4 6 8 5 1 1 2 3 4 3 3 6 9 9 7 8 8 8 10 6 5 5 5 4 4 5 4 2 3 2 3 4 1 1 5 4 4 4 5 7 7 8 7 4 2 6 7 7 8 6 7 9 10 10 9 7 4 4 5 6 5 5 6 6 5 3 3 1 4 4 2 3 3
8 7 5 1 3 3 3 4 4 3 3 4 6 7 7 6 7 9 6 3 2 4 4 5 5 2 5 9 9 7 8 9 10 11 7 6 6 6 6 7 9 8 4 3 3 2 4 3 2 3 2 4 5 4 5 6 7 5 4 3 8 9 8 7 5 5 10 13 10 6 5 6 7 7 7 6 6 6 5 5 4 3 3 4 3 2 2 2
Wind_Direction
4 2 359 359 356 353 351 350 350 348 348 346 344 343 339 338 334 332 328 324 321 317 318 320 325 332 334 334 328 324 325 325 315 266 242 238 209 202 228 231 223 237 240 236 231 227 247 255 252 247 232 218 186 147 201 190 118 83 88 90 125 179 187 191 175 192 166 149 207 336 20 107 115 323 334 41 82 137 150 140 137 119 117 131 133 138 146 150
4 1 358 357 354 350 349 347 346 345 345 344 343 341 338 338 334 333 329 325 321 317 318 318 324 332 333 337 327 324 328 331 321 271 244 213 188 203 235 243 239 249 242 229 226 211 216 251 248 243 209 205 183 158 199 194 118 103 122 125 217 203 193 187 169 194 173 150 175 151 46 92 139 299 329 20 118 151 129 122 129 118 117 125 130 135 143 149
5 3 360 357 352 349 348 345 344 343 343 343 342 341 340 338 336 334 332 331 328 324 323 319 326 332 336 335 323 325 330 342 325 272 244 198 197 215 229 236 242 251 247 234 230 213 212 236 260 268 212 223 201 164 190 189 180 184 118 137 239 206 170 183 159 161 165 146 140 160 147 88 206 273 343 325 125 133 133 136 137 131 133 138 138 137 142 149
6 5 1 357 352 348 347 344 343 342 342 342 341 341 339 338 338 338 339 340 339 336 332 324 329 333 338 329 321 327 332 4 291 246 209 192 202 214 223 237 244 246 242 231 225 218 232 256 272 269 223 227 191 151 181 183 182 168 152 187 225 182 137 182 149 130 137 135 137 152 144 111 279 217 53 19 83 117 152 149 147 143 143 145 147 145 146 151
6 5 2 357 351 348 346 343 342 341 341 341 341 340 340 342 345 345 346 345 344 344 339 331 334 336 336 326 321 328 348 41 274 235 200 201 201 212 227 239 242 236 225 217 223 230 255 270 263 254 231 217 154 148 203 182 171 152 199 208 199 163 133 198 134 120 130 117 114 113 143 178 327 296 66 63 104 138 171 151 146 145 146 148 150 151 150 151
4 3 0 356 353 349 345 343 342 342 342 341 342 342 345 347 348 349 348 347 346 345 345 342 347 345 335 325 316 336 25 101 274 244 216 210 201 216 227 235 230 220 209 205 220 243 271 265 258 281 268 260 155 203 217 172 180 146 213 209 182 163 149 202 130 120 138 116 117 134 161 132 40 359 24 71 143 188 234 145 142 142 145 146 147 152 154 151
1 0 357 355 353 351 347 345 343 342 342 342 344 345 347 348 349 350 349 350 348 347 354 358 1 348 340 336 312 12 77 253 267 237 221 206 201 218 212 219 209 199 199 195 203 225 265 267 288 280 274 295 196 222 215 162 177 147 162 188 160 159 154 182 129 104 115 111 134 146 131 112 91 87 360 346 177 320 359 144 141 140 142 143 147 157 157 156
358 358 355 353 352 351 349 346 343 343 342 343 345 345 347 348 349 348 350 353 353 356 0 9 17 352 358 96 313 14 296 249 231 201 214 201 196 205 189 196 195 195 194 194 200 200 253 279 262 237 254 265 226 251 198 146 171 179 159 165 165 175 140 130 101 92 101 98 110 118 109 141 126 61 302 311 49 5 55 142 142 140 142 147 155 162 160 167
356 355 352 351 351 351 349 346 343 342 340 342 343 344 346 348 348 348 352 355 359 6 2 13 11 1 21 34 113 6 275 225 186 178 193 186 176 181 186 188 192 194 193 210 220 219 221 238 240 218 253 268 267 305 148 141 186 191 145 144 178 174 106 110 98 95 108 84 73 111 94 77 16 342 262 354 58 357 93 144 148 143 148 155 163 170 169 179
355 354 351 349 350 349 347 344 341 339 339 340 341 342 344 346 348 349 351 354 2 10 6 24 13 18 32 9 73 15 268 201 178 168 128 150 158 163 180 186 192 193 203 228 231 223 210 229 256 257 269 277 291 333 87 148 150 133 128 126 163 147 105 123 119 113 107 55 38 117 111 359 341 337 228 355 29 1 95 142 156 149 155 163 169 180 177 184
356 354 351 350 349 346 345 343 339 337 335 336 338 339 341 345 347 346 349 352 0 11 14 32 15 21 44 85 95 274 236 195 185 163 134 148 165 175 176 185 197 200 211 235 245 238 235 250 276 290 263 283 330 344 43 124 110 117 126 105 111 112 84 107 119 137 122 49 49 105 104 350 355 303 217 287 349 24 100 139 165 161 162 168 174 183 182 192
358 355 352 351 348 345 344 341 337 334 331 332 334 335 338 342 343 342 343 347 357 9 14 15 23 44 27 90 195 247 219 202 201 169 161 181 197 213 192 198 208 211 216 224 251 258 266 277 300 322 265 294 348 350 101 123 117 131 133 109 141 72 56 216 142 133 106 42 183 114 79 298 226 213 220 23 29 45 85 145 185 174 166 171 177 182 185 190
1 357 353 350 347 345 342 339 336 331 327 326 327 331 335 337 338 338 337 342 352 1 4 2 12 44 22 287 240 278 275 234 213 183 187 203 226 238 229 226 222 229 232 231 256 281 292 293 302 294 264 272 286 246 138 135 135 149 140 116 144 39 306 223 168 102 86 40 216 129 150 245 216 215 240 36 60 69 59 231 200 178 169 172 175 175 178 168
2 359 356 352 348 344 341 338 333 328 324 321 322 327 331 332 332 331 331 332 338 356 356 343 331 47 81 266 277 299 297 254 203 197 203 208 221 232 236 237 235 237 237 239 259 282 288 292 300 285 258 229 233 299 26 127 142 145 112 79 136 139 260 217 168 141 100 338 267 95 199 262 242 215 189 43 54 85 78 296 227 177 170 166 168 166 159 143
360 359 357 354 349 344 341 336 331 327 321 317 316 322 326 327 325 324 325 322 326 346 343 339 315 348 9 291 293 304 283 219 197 210 219 217 221 232 240 237 235 232 229 238 257 271 280 296 317 300 282 291 347 346 345 71 124 138 135 288 280 180 237 273 191 167 140 143 202 115 190 271 279 222 44 53 52 73 99 298 296 178 165 158 164 159 138 141
356 356 354 353 350 346 341 335 331 326 320 315 313 317 323 322 318 318 315 305 306 319 345 23 19 24 2 287 300 315 249 202 202 216 226 226 223 234 245 237 229 225 225 233 245 259 273 299 310 240 278 319 20 49 353 15 8 197 159 213 244 175 201 283 220 180 143 123 188 229 214 297 5 26 348 24 54 58 96 314 335 58 163 157 162 155 137 146
354 352 351 351 349 347 343 337 332 326 318 314 314 317 320 317 311 307 304 286 280 276 237 330 345 3 269 276 302 295 227 206 213 221 229 233 228 234 243 227 217 218 223 233 242 255 275 315 250 249 311 303 222 96 37 330 282 253 167 176 220 184 168 186 246 186 138 124 178 216 238 280 107 154 254 29 47 46 69 354 337 348 160 158 156 151 144 150
352 349 349 348 346 346 344 339 334 326 317 314 318 320 318 315 308 290 256 147 137 336 264 297 336 11 271 265 264 251 220 207 214 219 224 229 226 236 243 222 208 183 198 253 258 243 253 313 208 289 327 291 215 119 142 228 217 212 192 167 196 190 169 174 206 169 142 133 149 183 232 228 149 178 177 45 14 345 39 331 305 1 146 163 157 153 153 154
349 348 347 345 344 344 343 341 336 326 317 316 321 322 318 319 343 113 135 130 111 332 288 249 172 178 273 258 244 248 205 184 182 204 224 227 220 234 247 242 217 131 126 30 270 224 167 303 16 140 261 244 222 188 200 223 215 224 225 164 157 167 166 167 166 153 141 124 117 171 205 160 161 168 133 120 258 260 10 299 291 44 73 148 143 154 158 159
347 346 344 343 342 341 341 340 335 326 321 321 326 331 332 345 20 29 139 158 209 231 251 237 193 219 273 282 257 192 165 167 175 210 230 232 205 214 251 247 241 141 163 165 222 243 142 182 249 219 225 227 227 218 220 235 245 259 264 203 160 149 142 142 129 154 145 110 69 159 128 131 153 151 147 170 195 190 222 296 316 69 61 47 83 111 127 165
345 344 344 343 341 339 338 338 333 325 321 323 329 343 42 276 7 322 292 261 240 222 234 238 213 223 251 268 245 164 150 213 242 236 237 233 182 159 270 201 136 256 226 185 192 332 119 180 238 230 227 228 234 234 233 246 250 254 248 163 153 131 123 118 127 161 154 91 102 129 109 129 147 148 176 171 170 197 183 222 352 81 86 106 167 137 44 358
344 343 342 341 339 337 336 335 331 321 321 330 332 328 225 285 302 302 301 295 283 251 234 244 232 231 246 260 249 192 140 222 259 274 238 219 159 151 244 171 169 233 239 160 90 5 144 225 241 234 227 228 248 252 245 249 242 224 123 128 147 125 98 69 128 165 159 84 148 139 112 135 154 162 197 183 178 210 185 173 120 103 112 147 184 139 60 36
343 341 341 341 339 336 334 333 328 321 338 345 323 277 300 320 318 307 301 274 295 279 244 241 236 235 240 256 242 182 148 192 223 270 214 186 169 173 187 205 221 255 256 168 166 180 202 239 243 242 231 214 233 239 222 244 250 135 113 122 145 156 137 121 191 173 167 78 136 126 97 111 128 156 205 209 191 167 132 136 104 111 132 161 179 123 107 119
343 341 340 340 337 336 334 332 326 336 351 338 306 295 327 336 333 314 302 211 284 278 254 233 226 237 224 232 205 159 177 191 181 245 199 177 175 165 175 213 241 278 260 215 189 189 222 237 231 230 224 197 212 240 125 78 343 352 156 123 144 179 180 162 165 160 104 52 120 111 68 354 319 177 206 236 184 122 51 102 97 89 117 136 138 115 153 165
344 341 339 339 339 335 333 332 333 347 344 324 299 320 333 337 336 320 304 26 297 275 264 237 219 223 199 188 176 163 158 189 205 207 183 184 186 155 199 210 206 251 257 237 201 192 231 241 212 196 237 100 70 293 152 125 303 328 299 152 177 185 175 133 141 141 87 59 189 139 86 290 280 214 211 268 162 170 57 114 117 108 127 131 129 134 161 150
344 341 338 339 338 335 337 344 337 339 335 310 314 331 328 330 337 334 4 65 311 265 242 216 155 189 183 164 169 121 61 294 238 184 174 198 200 171 225 261 224 243 263 256 214 184 232 240 172 135 296 38 50 299 263 171 133 5 237 276 272 173 153 137 142 146 136 168 208 190 119 215 278 258 233 284 235 213 225 153 152 148 154 154 149 161 169 156
344 340 338 338 339 340 342 318 324 333 324 310 334 338 331 335 342 345 57 48 312 247 212 259 61 172 191 183 155 96 70 264 269 180 186 200 195 162 210 258 297 263 280 12 327 260 227 234 89 120 88 48 42 299 263 176 119 284 235 281 31 131 143 147 153 164 179 125 171 199 139 106 241 253 259 317 280 247 248 229 211 169 162 173 171 186 186 167
343 339 336 334 336 338 331 310 323 328 300 322 340 343 339 340 344 4 86 44 293 234 210 232 61 180 201 163 136 127 206 213 106 230 215 196 186 122 187 243 255 261 271 83 267 268 196 156 193 152 83 62 210 236 239 140 117 247 242 119 74 131 147 157 164 179 178 96 129 215 174 94 240 265 300 351 258 247 245 235 230 195 170 176 179 197 212 183
341 339 334 330 331 332 325 313 310 301 306 334 345 341 338 340 353 58 83 67 166 231 211 118 74 206 202 70 139 194 204 162 182 240 230 186 201 136 182 229 230 266 275 195 221 259 227 189 183 145 118 201 226 232 216 132 147 237 237 95 67 126 152 163 167 168 138 106 176 208 190 127 259 270 270 144 233 243 243 240 241 232 189 172 182 193 217 223
338 337 332 328 327 326 319 307 298 295 327 340 340 334 337 347 35 73 34 246 201 247 141 85 271 144 128 128 219 228 183 177 216 234 78 163 246 351 232 242 175 297 301 266 229 247 256 248 188 143 161 198 232 249 238 192 190 208 70 62 34 41 133 146 161 128 130 204 220 199 188 152 161 262 217 174 230 238 235 251 250 255 236 178 181 194 202 229
334 335 331 325 320 315 308 299 300 319 325 329 332 335 355 18 72 91 207 240 247 237 139 199 235 134 150 174 215 241 206 214 213 152 179 223 349 356 339 345 13 15 345 334 307 304 332 334 247 229 185 180 239 306 312 319 101 103 55 72 47 335 18 46 350 54 131 259 254 187 173 113 93 265 263 213 284 299 248 293 286 267 274 229 195 197 202 217
332 332 327 321 313 300 278 274 295 306 307 320 335 360 49 49 21 187 233 293 301 205 184 194 204 186 187 187 202 210 180 212 213 168 181 185 170 214 199 198 174 46 345 296 311 327 327 226 223 265 227 151 107 345 325 346 31 63 53 68 73 338 3 5 317 359 181 275 302 167 147 82 55 272 338 38 344 350 41 27 357 354 340 296 241 208 201 216
331 330 325 319 308 292 280 281 291 294 298 319 351 44 76 89 232 218 226 297 260 217 209 163 187 195 187 184 216 205 161 197 214 191 188 172 178 229 236 215 177 109 218 244 300 328 324 296 263 54 321 119 112 123 296 328 4 61 116 108 106 103 60 306 279 295 233 62 12 29 101 66 307 339 2 30 35 16 37 42 33 32 26 12 351 333 262 263
330 329 325 317 303 291 282 276 274 277 290 324 43 67 86 162 241 232 225 253 254 265 295 178 186 190 184 192 215 187 168 215 209 180 183 168 162 238 264 242 186 126 153 218 262 222 351 314 264 176 237 181 134 173 176 163 185 217 175 137 130 142 138 212 226 214 214 138 19 4 28 13 16 6 334 6 43 33 33 30 39 49 46 55 54 38 20 342
331 328 324 314 300 291 278 259 250 243 239 64 70 86 161 212 242 230 227 260 288 305 295 239 171 179 202 237 236 187 167 212 204 170 175 178 176 210 235 231 188 143 115 108 242 259 51 272 250 235 203 161 167 220 167 115 51 263 153 98 94 196 154 185 196 146 131 105 28 14 51 333 4 330 316 17 38 20 24 20 20 32 48 85 94 95 102 102
333 330 327 308 291 286 272 226 204 190 162 95 86 153 206 222 230 189 248 276 344 347 316 317 66 187 227 269 275 227 134 151 189 169 197 203 197 208 216 226 175 148 137 134 214 324 35 294 283 338 1 190 195 209 156 118 141 301 29 79 240 194 140 137 12 59 81 89 12 8 127 301 340 294 325 17 23 0 1 3 5 359 1 41 68 94 69 100
334 332 322 295 288 272 241 183 168 164 132 98 137 206 226 227 225 212 277 303 339 9 335 330 307 219 206 267 284 239 149 67 195 185 217 235 242 234 185 172 131 154 167 148 128 223 106 317 291 254 198 238 210 143 66 138 141 110 4 233 242 38 90 111 86 32 53 87 346 344 152 297 351 158 334 3 357 338 328 322 343 352 357 17 18 17 9 356
329 325 305 297 293 192 194 172 157 148 93 99 188 237 231 225 239 272 305 317 326 333 344 274 236 203 156 148 297 253 169 139 214 196 195 239 246 238 148 137 354 173 168 128 94 226 115 23 294 292 201 263 306 60 7 311 99 128 187 217 88 60 2 14 64 113 93 95 57 350 326 299 227 231 306 339 317 307 314 321 355 9 1 5 359 1 2 354
327 324 308 315 92 148 165 158 147 116 66 147 214 241 233 252 273 281 285 291 297 302 297 240 220 140 135 142 311 288 196 180 206 187 150 185 218 252 157 144 327 338 104 99 108 221 104 100 282 315 345 329 6 46 357 308 333 47 29 355 50 137 164 124 68 135 123 118 141 137 301 281 222 212 239 255 274 293 315 328 355 13 358 344 344 355 357 8
339 327 306 311 149 150 151 145 128 67 98 182 215 234 266 285 278 269 267 269 268 262 261 258 262 47 270 188 21 276 223 199 210 191 182 161 134 273 228 139 149 103 68 71 85 61 53 86 257 305 336 13 26 305 218 251 338 49 34 1 349 358 105 99 47 48 113 128 150 147 186 265 252 197 203 234 265 299 313 316 343 14 14 4 360 9 5 8
353 353 307 43 144 148 141 128 102 102 170 233 232 238 279 283 279 285 279 274 268 245 247 259 254 191 213 257 275 239 231 248 243 209 192 147 123 178 245 159 143 119 72 56 51 56 77 95 72 328 342 357 271 262 246 218 179 130 127 166 164 118 86 80 26 337 75 114 149 153 165 255 258 191 196 230 257 300 304 300 360 25 27 25 24 28 17 10
18 309 286 343 150 154 131 107 238 167 172 243 222 240 276 266 268 283 282 280 267 243 248 252 238 197 200 210 206 177 83 259 253 214 156 161 147 159 188 135 120 107 98 86 296 190 145 99 75 346 288 276 274 284 294 251 175 124 127 144 136 121 105 114 151 215 70 78 106 107 106 262 252 200 183 198 227 261 290 337 64 43 32 36 37 36 29 17
60 281 286 296 212 194 117 75 255 250 218 238 234 244 257 255 267 275 276 281 270 256 266 249 218 213 215 182 154 100 63 3 306 87 78 50 87 167 155 130 113 94 89 84 299 317 61 80 67 325 300 306 304 315 345 7 44 56 11 31 123 145 129 134 156 149 117 127 118 80 67 269 262 195 155 174 212 239 13 54 69 61 42 41 37 32 28 18
315 269 288 298 222 209 206 187 217 242 245 259 262 252 251 250 254 260 266 271 264 281 305 274 230 232 239 201 172 186 152 96 350 105 112 106 214 227 117 108 98 79 89 162 181 67 46 90 77 50 358 347 344 347 348 350 19 40 308 319 5 104 102 98 101 83 83 181 147 115 160 259 255 152 152 191 200 128 90 81 76 73 56 42 30 29 26 18
317 247 265 299 253 205 204 196 184 221 255 271 261 257 263 260 248 244 250 260 256 248 277 282 291 298 261 242 271 242 145 137 187 340 96 119 63 18 74 96 99 101 132 160 149 108 114 147 105 105 115 89 314 300 290 292 332 334 304 341 16 64 98 109 94 79 76 203 111 120 174 236 236 157 169 203 179 125 111 111 100 92 79 53 10 17 32 27
354 317 274 314 316 217 238 251 191 237 269 280 273 263 256 261 269 247 237 248 252 232 219 249 284 328 292 250 149 320 289 148 143 101 111 133 101 298 139 111 106 118 127 127 116 88 92 124 127 138 153 174 196 221 236 234 293 307 316 358 9 44 108 106 84 106 152 130 56 19 162 150 167 182 183 205 184 135 118 111 105 105 101 85 10 15 36 38
56 307 307 340 327 319 327 333 6 336 286 280 273 261 258 266 289 282 249 254 261 231 201 221 193 88 311 296 319 288 268 263 130 123 137 141 139 192 159 93 93 133 132 119 110 95 93 228 187 152 171 197 203 225 256 269 257 264 301 330 349 44 89 91 96 153 153 108 33 246 147 143 176 191 181 198 180 133 130 134 133 131 128 130 82 42 46 43
231 272 327 16 319 318 350 318 318 317 300 290 265 245 259 271 276 280 284 298 300 270 149 263 294 135 175 340 356 322 287 283 238 160 130 131 132 110 38 26 71 171 138 105 93 103 106 219 230 168 190 220 215 240 270 286 270 264 282 309 75 75 93 108 126 160 150 120 168 184 154 152 178 181 182 195 168 139 148 161 160 146 129 121 81 55 52 42
310 290 331 15 327 264 268 279 293 305 298 293 273 239 243 254 268 278 289 319 320 312 157 177 293 318 1 45 52 337 329 317 268 247 160 154 155 124 83 9 259 207 115 107 142 104 104 212 247 184 199 274 270 276 315 349 324 297 266 210 118 90 104 110 113 126 114 115 146 150 140 143 169 175 179 179 148 137 141 142 147 140 124 114 72 43 43 41
359 307 330 354 306 276 272 281 302 314 298 285 269 262 255 255 295 298 300 19 333 316 326 27 13 17 30 45 58 27 348 329 296 285 230 163 170 160 156 177 197 223 103 127 146 58 90 217 249 126 74 311 304 333 3 1 336 309 281 235 98 95 99 98 103 105 91 95 125 124 119 127 195 169 146 136 133 127 125 136 168 219 134 104 71 35 35 44
324 300 319 327 281 285 291 296 323 320 298 303 324 317 321 335 336 328 313 246 182 324 3 32 27 45 57 50 44 19 339 322 295 282 258 200 192 182 170 169 156 154 165 143 118 86 108 178 287 69 59 301 309 9 7 355 356 348 324 60 88 101 115 114 126 135 126 127 125 118 127 165 193 151 124 130 140 129 136 153 174 233 183 104 93 53 30 36
338 317 326 313 254 291 310 308 324 307 283 325 337 335 327 318 340 354 330 284 107 83 63 46 30 45 71 45 24 346 312 296 277 269 253 218 201 173 156 161 156 153 164 144 111 129 134 129 121 92 87 277 296 8 23 12 15 354 282 156 106 102 113 116 107 126 137 138 140 155 177 170 160 146 137 147 151 144 158 169 175 204 180 121 122 117 39 6